EDT,Max TemperatureF,Mean TemperatureF,Min TemperatureF,Max Dew PointF,MeanDew PointF,Min DewpointF,Max Humidity, Mean Humidity, Min Humidity, Max Sea Level PressureIn, Mean Sea Level PressureIn, Min Sea Level PressureIn, Max VisibilityMiles, Mean VisibilityMiles, Min VisibilityMiles, Max Wind SpeedMPH, Mean Wind SpeedMPH, Max Gust SpeedMPH,PrecipitationIn, CloudCover, Events, WindDirDegrees
2011-10-1,50,46,42,36,33,32,66,60,54,30.32,30.25,30.15,10,10,10,13,8,21,0.00,4,,15
2011-10-2,59,44,30,43,35,28,100,78,45,30.27,30.23,30.14,10,10,2,9,1,,0.00,1,,281
2011-10-3,64,48,33,50,38,32,93,72,37,30.23,30.19,30.15,10,10,1,13,2,17,0.00,0,,360
2011-10-4,62,50,37,46,41,34,93,74,45,30.29,30.25,30.21,10,10,10,7,1,,0.00,0,,254
2011-10-5,69,54,39,52,44,36,93,73,49,30.27,30.23,30.21,10,10,10,5,1,,0.00,0,,278
2011-10-6,73,60,46,52,48,43,87,64,44,30.29,30.26,30.24,10,10,10,8,4,,0.00,0,,168
2011-10-7,77,62,48,52,48,43,87,61,36,30.32,30.27,30.22,10,10,10,10,2,21,0.00,0,,181
2011-10-8,73,68,64,52,50,46,60,48,41,30.30,30.26,30.19,10,10,10,16,11,24,0.00,0,,183
2011-10-9,73,68,62,52,50,46,68,53,41,30.36,30.31,30.25,10,10,10,10,6,20,0.00,0,,197
2011-10-10,80,62,44,54,45,41,93,63,24,30.29,30.21,30.10,10,10,5,13,2,16,0.00,0,,171
2011-10-11,77,64,51,52,49,46,82,60,39,30.08,30.03,29.95,10,10,10,9,3,,0.00,1,,176
2011-10-12,77,62,46,50,46,43,88,63,29,29.94,29.87,29.76,10,10,10,7,1,,0.00,1,,320
2011-10-13,64,56,48,54,49,45,94,76,59,29.74,29.59,29.43,10,10,7,8,4,,0.00,3,Rain,127
2011-10-14,55,52,48,52,46,39,94,80,62,29.45,29.36,29.29,10,9,4,25,11,34,0.00,8,Rain,292
2011-10-15,53,48,42,39,36,32,87,66,44,29.63,29.51,29.42,10,9,5,28,22,40,0.00,7,Rain,292
2011-10-16,55,52,50,39,36,32,62,53,44,29.72,29.67,29.58,10,10,10,17,11,26,0.00,3,,272
2011-10-17,53,50,46,41,33,28,67,53,43,29.68,29.62,29.60,10,10,10,22,15,37,0.00,4,,276
2011-10-18,50,47,44,39,36,34,81,65,54,29.89,29.80,29.72,10,10,7,13,7,16,0.00,7,Rain,340
2011-10-19,48,42,37,37,34,32,87,69,54,29.91,29.84,29.75,10,10,10,17,6,29,0.00,5,,36
2011-10-20,46,44,42,39,38,36,87,82,66,29.63,29.50,29.45,10,9,5,23,15,38,0.00,8,Rain,356
2011-10-21,44,40,33,36,33,32,93,67,61,30.04,29.93,29.75,10,10,10,15,8,28,0.00,8,,318
2011-10-22,53,42,30,41,35,28,100,81,51,30.04,30.01,30.00,10,9,4,10,2,,0.00,0,,231
2011-10-23,55,42,30,43,34,28,100,83,47,30.01,29.93,29.82,10,6,0,12,1,17,0.00,4,Fog-Rain,213
2011-10-24,51,45,39,45,39,36,87,74,54,30.02,29.89,29.74,10,10,7,14,7,21,0.00,1,,281
2011-10-25,44,38,33,41,38,32,93,86,81,30.10,30.03,29.88,10,8,2,12,3,20,0.00,7,Rain,95
2011-10-26,46,44,41,41,37,34,93,77,62,29.96,29.92,29.88,10,10,4,12,7,20,0.00,8,,34
2011-10-27,46,39,32,37,33,30,100,82,57,30.02,29.97,29.94,10,10,7,13,2,17,0.00,4,Rain,335
2011-10-28,48,37,26,36,29,23,93,75,53,30.15,30.11,30.04,10,10,10,12,2,17,0.00,4,,180
2011-10-29,46,40,32,37,34,32,100,81,62,30.08,30.01,29.98,10,9,2,9,3,,0.00,5,Rain,153
2011-10-30,50,38,26,34,28,23,93,77,47,30.12,30.08,29.95,10,9,4,14,2,21,0.00,2,,140
2011-10-31,48,45,42,43,40,37,93,83,71,30.07,29.98,29.92,10,8,3,12,6,,0.00,7,Rain,181